TimeEDT,TemperatureF,Dew PointF,Humidity,Sea Level PressureIn,VisibilityMPH,Wind Direction,Wind SpeedMPH,Gust SpeedMPH,PrecipitationIn,Events,Conditions,WindDirDegrees,DateUTC
12:51 AM,68.0,64.9,90,30.15,10.0,SE,5.8,-,N/A,,Clear,140,2013-08-21 04:51:00
1:51 AM,68.0,64.0,87,30.15,10.0,SE,8.1,-,N/A,,Mostly Cloudy,140,2013-08-21 05:51:00
2:51 AM,69.1,64.0,84,30.14,10.0,SE,5.8,-,N/A,,Overcast,140,2013-08-21 06:51:00
3:51 AM,68.0,64.0,87,30.15,9.0,SSE,6.9,-,0.01,Rain,Light Rain,160,2013-08-21 07:51:00
4:51 AM,66.9,64.0,90,30.13,10.0,Calm,Calm,-,0.01,,Scattered Clouds,0,2013-08-21 08:51:00
5:51 AM,64.9,64.0,97,30.14,10.0,Calm,Calm,-,N/A,,Scattered Clouds,0,2013-08-21 09:51:00
6:51 AM,64.9,63.0,93,30.17,10.0,South,4.6,-,N/A,,Mostly Cloudy,180,2013-08-21 10:51:00
7:51 AM,68.0,64.0,87,30.18,10.0,SSE,4.6,-,N/A,,Mostly Cloudy,160,2013-08-21 11:51:00
8:51 AM,71.1,64.9,81,30.19,10.0,SSW,3.5,-,N/A,,Partly Cloudy,210,2013-08-21 12:51:00
9:51 AM,71.1,64.9,81,30.20,10.0,SW,3.5,-,N/A,,Mostly Cloudy,230,2013-08-21 13:51:00
10:51 AM,73.0,66.0,79,30.22,10.0,WSW,5.8,-,N/A,,Partly Cloudy,240,2013-08-21 14:51:00
11:51 AM,73.9,66.0,76,30.20,10.0,SSW,3.5,-,N/A,,Mostly Cloudy,210,2013-08-21 15:51:00
12:48 PM,75.2,66.2,73,30.29,10.0,SW,5.8,-,N/A,,Scattered Clouds,230,2013-08-21 16:48:00
12:51 PM,77.0,66.9,71,30.19,10.0,West,4.6,-,N/A,,Partly Cloudy,270,2013-08-21 16:51:00
1:51 PM,78.1,66.0,66,30.17,10.0,Variable,4.6,-,N/A,,Mostly Cloudy,0,2013-08-21 17:51:00
2:01 PM,78.8,64.4,61,30.27,10.0,SSW,6.9,-,N/A,,Mostly Cloudy,210,2013-08-21 18:01:00
2:51 PM,78.1,64.0,62,30.14,10.0,SW,6.9,-,N/A,,Partly Cloudy,220,2013-08-21 18:51:00
3:51 PM,77.0,64.9,66,30.14,10.0,WSW,6.9,-,N/A,,Clear,240,2013-08-21 19:51:00
4:51 PM,75.9,66.0,71,30.13,10.0,SW,8.1,-,N/A,,Partly Cloudy,230,2013-08-21 20:51:00
5:51 PM,75.0,66.0,73,30.14,10.0,SW,6.9,-,N/A,,Partly Cloudy,220,2013-08-21 21:51:00
6:51 PM,73.9,66.0,76,30.12,10.0,SW,6.9,-,N/A,,Clear,230,2013-08-21 22:51:00
7:51 PM,72.0,66.0,81,30.14,10.0,WSW,5.8,-,0.00,Rain,Light Rain,240,2013-08-21 23:51:00
8:51 PM,69.1,66.9,93,30.13,9.0,WSW,3.5,-,0.05,Rain,Light Rain,240,2013-08-22 00:51:00
9:16 PM,69.8,66.2,88,30.25,9.0,Variable,4.6,-,0.00,,Overcast,0,2013-08-22 01:16:00
9:25 PM,69.8,66.2,88,30.25,10.0,West,5.8,-,0.00,,Overcast,280,2013-08-22 01:25:00
9:32 PM,68.0,66.2,94,30.25,10.0,West,4.6,-,0.00,,Overcast,270,2013-08-22 01:32:00
9:51 PM,68.0,64.9,90,30.17,10.0,NW,5.8,-,0.00,,Overcast,320,2013-08-22 01:51:00
10:04 PM,68.0,64.4,88,30.25,10.0,North,10.4,-,N/A,,Mostly Cloudy,360,2013-08-22 02:04:00
10:10 PM,66.2,64.4,94,30.25,10.0,North,8.1,-,N/A,,Mostly Cloudy,360,2013-08-22 02:10:00
10:22 PM,66.2,62.6,88,30.25,10.0,NE,3.5,-,N/A,,Scattered Clouds,40,2013-08-22 02:22:00
10:51 PM,66.0,62.1,87,30.16,10.0,Calm,Calm,-,N/A,,Partly Cloudy,0,2013-08-22 02:51:00
11:43 PM,62.6,60.8,94,30.24,2.0,ESE,4.6,-,N/A,,Clear,110,2013-08-22 03:43:00
11:51 PM,62.1,61.0,96,30.16,2.5,SSE,4.6,-,N/A,,Clear,150,2013-08-22 03:51:00